Weather History for KTVK - March, 2013

Change the Weather History Date:

Monday, March 4, 2013

  Actual Average Record
Temperature  
Mean Temperature 32 °F -  
Max Temperature 37 °F 45 °F 69 °F (1992)
Min Temperature 28 °F 26 °F -11 °F (1978)
Degree Days  
Heating Degree Days 32    
Moisture  
Dew Point 27 °F    
Average Humidity 82    
Maximum Humidity 100    
Minimum Humidity 65    
Precipitation  
Precipitation 0.00 in - - ()
Sea Level Pressure  
Sea Level Pressure 29.83 in    
Wind  
Wind Speed 13 mph (East)    
Max Wind Speed 18 mph    
Max Gust Speed 23 mph    
Visibility 10 miles    
Events Snow    
Averages and records for this station are not official NWS values.
T = Trace of Precipitation, MM = Missing Value Source: NWS Daily Summary

Daily Weather History Graph

Daily Weather History Graph

Search for Another Location

Airport or City:

Trip Planner

Search our weather history database for the weather conditions in past years. The results will help you decide how hot, cold, wet, or windy it might be!

Date:

Astronomy

Mar. 04, 2013 Rise Set
Actual Time 6:40 AM CST 6:06 PM CST
Civil Twilight 6:13 AM CST 6:33 PM CST
Nautical Twilight 5:41 AM CST 7:05 PM CST
Astronomical Twilight 5:09 AM CST 7:37 PM CST
Moon 12:51 AM CST (3/4) 10:47 AM CST (3/4)
Length of Visible Light 12h 20m
Length of Day
11h 26m
Waning Gibbous, 52% of the Moon is Illuminated
Mar 4
Waning Gibbous
Mar 4
Last Quarter
Mar 11
New
Mar 19
First Quarter
Mar 27
Full

Hourly Weather History & Observations

Time (CST) Temp. Windchill Dew Point Humidity Pressure Visibility Wind Dir Wind Speed Gust Speed Precip Events Conditions
12:15 AM 28.4 °F 17.5 °F 24.8 °F 86% 29.90 in 10.0 mi ESE 13.8 mph 20.7 mph N/A   Scattered Clouds
12:35 AM 28.4 °F 17.5 °F 24.8 °F 86% 29.91 in 10.0 mi ESE 13.8 mph - N/A   Scattered Clouds
12:55 AM 28.4 °F 18.0 °F 24.8 °F 86% 29.91 in 10.0 mi ESE 12.7 mph - N/A   Clear
1:15 AM 28.4 °F 18.0 °F 24.8 °F 86% 29.91 in 10.0 mi ESE 12.7 mph - N/A   Clear
1:35 AM 28.4 °F 16.2 °F 26.6 °F 93% 29.89 in 10.0 mi East 17.3 mph - N/A   Scattered Clouds
1:55 AM 28.4 °F 16.6 °F 26.6 °F 93% 29.88 in 10.0 mi East 16.1 mph - N/A   Scattered Clouds
2:15 AM 28.4 °F 16.2 °F 26.6 °F 93% 29.86 in 10.0 mi East 17.3 mph - N/A   Scattered Clouds
2:35 AM 28.4 °F 17.0 °F 26.6 °F 93% 29.87 in 10.0 mi ESE 15.0 mph - N/A   Mostly Cloudy
2:55 AM 28.4 °F 17.0 °F 26.6 °F 93% 29.85 in 10.0 mi ESE 15.0 mph - N/A   Partly Cloudy
3:15 AM 28.4 °F 16.2 °F 26.6 °F 93% 29.84 in 10.0 mi ESE 17.3 mph - N/A   Clear
3:35 AM 28.4 °F 18.5 °F 26.6 °F 93% 29.84 in 10.0 mi ESE 11.5 mph - N/A   Clear
3:55 AM 28.4 °F 17.0 °F 26.6 °F 93% 29.83 in 10.0 mi ESE 15.0 mph - N/A   Mostly Cloudy
4:15 AM 28.4 °F 17.0 °F 26.6 °F 93% 29.82 in 10.0 mi ESE 15.0 mph - N/A   Scattered Clouds
4:35 AM 28.4 °F 17.0 °F 26.6 °F 93% 29.83 in 10.0 mi ESE 15.0 mph - N/A   Mostly Cloudy
4:55 AM 28.4 °F 16.2 °F 26.6 °F 93% 29.83 in 10.0 mi ESE 17.3 mph - N/A   Mostly Cloudy
5:15 AM 28.4 °F 16.6 °F 26.6 °F 93% 29.81 in 10.0 mi ESE 16.1 mph - N/A   Scattered Clouds
5:35 AM 28.4 °F 16.6 °F 26.6 °F 93% 29.82 in 10.0 mi ESE 16.1 mph - N/A   Partly Cloudy
5:55 AM 28.4 °F 17.0 °F 26.6 °F 93% 29.82 in 10.0 mi ESE 15.0 mph 21.9 mph N/A   Clear
6:15 AM 28.4 °F 17.0 °F 26.6 °F 93% 29.82 in 10.0 mi ESE 15.0 mph - N/A   Clear
6:35 AM 28.4 °F 17.5 °F 26.6 °F 93% 29.82 in 10.0 mi ESE 13.8 mph - N/A   Clear
6:55 AM 28.4 °F 18.0 °F 26.6 °F 93% 29.82 in 10.0 mi ESE 12.7 mph - N/A   Clear
7:15 AM 28.4 °F 18.0 °F 26.6 °F 93% 29.82 in 10.0 mi ESE 12.7 mph - N/A   Clear
7:35 AM 28.4 °F 18.5 °F 26.6 °F 93% 29.82 in 10.0 mi East 11.5 mph - N/A   Clear
7:55 AM 30.2 °F 19.3 °F 26.6 °F 86% 29.82 in 10.0 mi East 15.0 mph - N/A   Clear
8:15 AM 30.2 °F 19.8 °F 26.6 °F 86% 29.82 in 10.0 mi ESE 13.8 mph 18.4 mph N/A   Clear
8:35 AM 30.2 °F 19.3 °F 26.6 °F 86% 29.81 in 10.0 mi ESE 15.0 mph 19.6 mph N/A   Clear
8:55 AM 32.0 °F 20.8 °F 26.6 °F 80% 29.80 in 10.0 mi ESE 17.3 mph - N/A   Clear
9:15 AM 32.0 °F 20.5 °F 26.6 °F 80% 29.80 in 10.0 mi ESE 18.4 mph - N/A   Clear
9:35 AM 32.0 °F 21.2 °F 28.4 °F 87% 29.80 in 10.0 mi ESE 16.1 mph 23.0 mph N/A   Clear
9:55 AM 32.0 °F 22.5 °F 28.4 °F 87% 29.79 in 10.0 mi ESE 12.7 mph - N/A   Clear
10:15 AM 33.8 °F 23.9 °F 26.6 °F 75% 29.79 in 10.0 mi ESE 15.0 mph - N/A   Clear
10:55 AM 35.6 °F 27.5 °F 26.6 °F 70% 29.80 in 10.0 mi ESE 11.5 mph - N/A   Clear
11:15 AM 35.6 °F 27.5 °F 26.6 °F 70% 29.80 in 10.0 mi ESE 11.5 mph 17.3 mph N/A   Partly Cloudy
11:35 AM 35.6 °F 27.1 °F 26.6 °F 70% 29.81 in 10.0 mi ESE 12.7 mph - N/A   Partly Cloudy
11:55 AM 37.4 °F 28.9 °F 26.6 °F 65% 29.80 in 10.0 mi ESE 13.8 mph 17.3 mph N/A   Clear
12:15 PM 37.4 °F 29.8 °F 26.6 °F 65% 29.80 in 10.0 mi ESE 11.5 mph - N/A   Partly Cloudy
12:55 PM 37.4 °F 29.8 °F 26.6 °F 65% 29.79 in 10.0 mi East 11.5 mph - N/A   Clear
1:15 PM 37.4 °F 29.3 °F 26.6 °F 65% 29.78 in 10.0 mi ESE 12.7 mph - N/A   Clear
1:35 PM 37.4 °F 29.8 °F 26.6 °F 65% 29.78 in 10.0 mi East 11.5 mph - N/A   Clear
1:55 PM 37.4 °F 28.5 °F 26.6 °F 65% 29.77 in 10.0 mi East 15.0 mph - N/A   Clear
2:15 PM 37.4 °F 28.9 °F 26.6 °F 65% 29.76 in 10.0 mi East 13.8 mph - N/A   Clear
2:35 PM 37.4 °F 29.8 °F 26.6 °F 65% 29.76 in 10.0 mi East 11.5 mph - N/A   Clear
2:55 PM 37.4 °F 30.3 °F 26.6 °F 65% 29.77 in 10.0 mi East 10.4 mph - N/A   Clear
3:15 PM 37.4 °F 30.3 °F 28.4 °F 70% 29.78 in 10.0 mi East 10.4 mph 16.1 mph N/A   Clear
3:35 PM 37.4 °F 28.9 °F 26.6 °F 65% 29.78 in 10.0 mi East 13.8 mph - N/A   Clear
3:55 PM 37.4 °F 29.8 °F 26.6 °F 65% 29.79 in 10.0 mi East 11.5 mph 17.3 mph N/A   Clear
4:15 PM 37.4 °F 29.8 °F 26.6 °F 65% 29.79 in 10.0 mi East 11.5 mph - N/A   Clear
4:55 PM 35.6 °F 29.2 °F 28.4 °F 75% 29.81 in 10.0 mi East 8.1 mph - N/A   Clear
5:15 PM 35.6 °F 27.5 °F 28.4 °F 75% 29.82 in 10.0 mi East 11.5 mph - N/A   Clear
5:35 PM 35.6 °F 28.6 °F 28.4 °F 75% 29.82 in 10.0 mi East 9.2 mph - N/A   Clear
5:55 PM 35.6 °F 29.2 °F 28.4 °F 75% 29.83 in 10.0 mi East 8.1 mph - N/A   Clear
6:15 PM 35.6 °F 29.9 °F 28.4 °F 75% 29.84 in 10.0 mi East 6.9 mph - N/A   Clear
6:35 PM 33.8 °F 27.7 °F 28.4 °F 81% 29.85 in 10.0 mi East 6.9 mph - N/A   Clear
6:55 PM 35.6 °F 29.9 °F 28.4 °F 75% 29.86 in 10.0 mi East 6.9 mph - N/A   Partly Cloudy
7:15 PM 33.8 °F 27.7 °F 28.4 °F 81% 29.87 in 10.0 mi East 6.9 mph - N/A   Mostly Cloudy
7:35 PM 33.8 °F 27.7 °F 28.4 °F 81% 29.87 in 10.0 mi ENE 6.9 mph - N/A   Partly Cloudy
7:55 PM 33.8 °F 27.7 °F 28.4 °F 81% 29.88 in 10.0 mi ENE 6.9 mph - N/A   Scattered Clouds
8:35 PM 33.8 °F 28.6 °F 28.4 °F 81% 29.90 in 10.0 mi NNE 5.8 mph - N/A   Partly Cloudy
8:55 PM 33.8 °F 27.7 °F 28.4 °F 81% 29.91 in 10.0 mi NE 6.9 mph - N/A   Mostly Cloudy
9:15 PM 33.8 °F 27.0 °F 28.4 °F 81% 29.92 in 10.0 mi North 8.1 mph - N/A   Overcast
9:35 PM 32.0 °F 25.6 °F 30.2 °F 93% 29.92 in 10.0 mi North 6.9 mph - N/A   Overcast
11:35 PM 32.0 °F 27.5 °F 32.0 °F 100% 29.93 in 9.0 mi North 4.6 mph - N/A Snow Light Snow
11:55 PM 32.0 °F 28.7 °F 32.0 °F 100% 29.92 in 5.0 mi North 3.5 mph - N/A Snow Light Snow